Temperature
27 27 26 25 25 24 23 23 22 21 21 20 19 19 19 18 18 18 18 18 18 18 18 17 17 17 17 17 17 17 16 16 16 16 15 15 15 15 15 15 16 16 16
25 26 26 25 25 24 23 23 22 21 21 20 20 19 19 18 18 18 18 18 18 18 18 18 17 17 17 17 17 17 16 16 16 16 15 15 15 15 15 15 15 16 16
25 25 25 25 24 24 23 23 22 21 20 20 19 19 18 18 18 18 18 18 18 18 18 17 17 17 17 17 17 17 17 16 16 16 16 16 15 15 15 15 15 15 15
24 23 23 24 24 23 23 22 22 21 20 20 19 19 19 18 18 18 18 17 17 17 17 17 17 16 16 16 16 17 17 16 16 16 16 16 16 16 15 15 15 15 15
23 23 22 22 22 22 22 22 22 21 21 20 19 18 18 18 18 17 17 17 17 17 17 17 16 16 16 16 16 16 16 16 16 16 16 16 16 16 16 16 15 15 15
23 23 22 21 21 20 21 21 21 21 20 20 19 18 18 18 17 17 17 17 17 17 17 16 16 16 16 15 15 16 16 16 16 16 16 16 16 16 16 15 16 16 16
22 21 21 20 19 19 20 21 20 21 20 20 19 18 17 17 17 17 17 17 17 17 16 16 16 16 15 15 15 15 15 15 16 16 15 15 15 16 16 16 15 15 15
19 20 20 19 19 18 19 20 20 20 20 19 18 18 17 17 17 17 17 17 17 16 16 16 15 15 15 15 15 15 15 15 15 15 15 15 15 15 15 15 15 15 15
17 18 18 18 19 19 19 19 19 19 20 19 18 18 18 18 17 17 17 17 16 16 16 16 15 15 15 15 15 15 14 14 15 15 14 15 15 15 15 15 15 15 15
16 17 17 17 18 19 19 19 18 19 19 19 18 18 18 18 18 17 17 17 16 16 16 16 15 15 15 15 14 14 14 14 14 14 14 14 14 14 15 15 15 15 15
17 17 17 17 18 19 19 19 18 19 19 19 19 18 18 18 18 17 17 17 17 16 16 15 15 15 15 15 15 15 14 14 14 14 13 13 13 14 14 14 14 14 15
17 18 18 18 19 19 19 20 20 20 20 19 19 18 18 18 18 18 18 17 17 16 15 15 15 15 15 15 15 15 14 14 13 13 13 13 13 13 13 13 14 14 14
17 18 19 19 20 20 20 20 20 20 20 19 19 18 18 18 18 18 18 17 17 16 15 15 15 15 15 15 15 15 14 14 14 13 13 13 13 13 13 13 13 13 14
18 18 19 20 20 21 20 20 19 19 19 19 19 18 18 18 18 17 17 17 17 16 16 15 15 15 15 15 15 15 14 14 14 13 13 13 13 13 13 13 13 13 13
17 18 18 19 19 20 20 20 19 19 18 18 18 18 18 17 17 17 17 16 16 16 16 16 15 15 15 14 15 15 14 14 14 14 14 13 13 13 12 12 12 12 12
14 15 17 18 19 19 19 19 18 18 18 18 18 17 17 17 17 17 16 16 16 16 16 16 15 15 15 14 14 15 15 14 14 14 14 13 13 13 12 12 12 12 12
14 14 15 16 16 16 17 18 18 18 17 17 17 17 17 17 17 16 16 16 16 16 15 15 15 15 15 15 14 14 14 14 14 14 14 14 13 13 13 12 12 12 12
14 15 15 15 15 15 15 15 15 15 15 15 15 15 15 16 15 15 15 15 15 15 15 15 15 15 15 15 14 14 14 14 14 14 14 14 13 13 13 13 12 12 12
15 15 15 15 15 15 15 15 14 14 14 14 14 14 14 14 14 14 14 14 14 14 14 14 14 14 14 14 14 14 14 14 14 14 14 14 13 13 13 13 13 12 12
15 14 14 15 15 14 14 14 13 13 13 12 12 12 12 13 13 13 13 13 12 12 13 13 13 14 14 14 14 14 14 14 13 13 13 13 13 13 13 13 13 13 13
15 14 14 14 14 14 14 13 13 12 12 12 12 12 12 12 12 11 11 11 11 11 11 12 12 12 13 13 13 13 13 13 13 13 13 13 13 13 13 13 13 13 13
15 15 14 14 14 14 14 13 13 12 12 12 12 11 12 12 11 11 11 11 11 11 11 11 11 11 12 12 12 12 12 12 12 12 13 13 13 13 13 13 13 13 13
15 15 15 15 14 14 14 14 13 13 12 12 12 12 12 12 12 11 11 11 11 11 11 11 11 11 11 11 11 12 11 11 11 12 12 12 12 12 12 12 13 12 12
16 15 15 15 15 14 14 14 14 13 13 12 12 12 12 12 11 11 11 11 11 11 11 11 11 11 11 11 11 11 11 11 11 11 11 11 12 12 12 12 12 12 12
16 16 15 15 15 15 14 14 14 13 13 13 12 12 12 11 11 11 11 11 11 10 10 10 10 10 11 11 11 11 11 10 10 10 11 11 11 11 11 11 11 11 11
16 16 16 16 15 15 15 14 14 14 13 13 12 12 11 11 11 11 11 11 10 10 10 10 10 10 10 11 11 10 10 10 10 10 10 11 11 11 11 11 11 11 11
Wind_Speed
8 13 20 21 18 15 15 14 14 14 11 7 6 5 5 5 5 5 6 7 7 5 4 4 5 5 6 7 7 5 4 3 3 4 3 3 3 2 2 2 3 3 5
6 9 15 18 18 17 15 14 14 12 11 9 6 4 4 4 4 4 4 6 6 5 4 5 5 4 4 6 7 6 4 3 3 4 4 1 3 3 2 1 3 4 4
10 11 14 14 15 15 15 13 11 11 9 9 6 5 4 4 2 2 3 4 6 7 5 5 5 5 5 6 7 7 7 5 4 3 4 4 4 2 3 2 2 3 3
6 6 8 10 13 12 11 12 10 10 9 9 9 8 5 4 5 4 4 4 5 5 6 5 5 5 4 5 6 7 5 7 6 3 2 2 4 4 2 3 2 3 4
6 6 6 7 7 7 9 10 9 8 8 8 9 8 5 4 3 3 5 5 4 4 5 5 5 6 4 5 6 6 6 5 6 5 3 2 1 2 3 3 3 2 3
6 8 7 9 8 5 7 8 7 5 6 7 7 8 8 7 5 4 5 4 2 2 4 4 5 6 6 6 6 7 7 6 6 5 4 4 3 3 3 2 3 4 4
7 11 12 10 8 6 5 4 5 5 6 7 7 7 7 7 7 6 6 5 3 3 5 4 4 5 6 7 6 6 7 8 8 7 5 5 5 4 4 3 2 3 3
9 7 10 12 10 6 3 5 7 6 6 6 6 5 6 5 4 5 5 6 5 5 5 4 5 5 6 6 6 5 6 6 8 8 9 6 7 6 5 5 4 3 3
12 11 7 7 12 13 12 10 8 6 6 5 4 4 5 5 4 4 5 4 4 4 5 5 5 5 5 6 6 6 7 7 7 7 8 7 6 6 6 6 6 6 6
10 11 9 5 3 5 7 7 7 6 5 4 4 3 5 6 5 4 6 6 6 5 6 5 4 4 4 4 5 4 5 6 6 6 7 8 6 6 6 6 6 7 7
5 6 2 7 8 4 4 7 7 7 6 6 4 4 5 5 5 5 5 6 5 6 7 6 5 5 5 5 5 5 4 5 5 5 6 8 8 7 6 6 5 6 5
3 5 8 10 10 7 5 7 8 8 7 5 4 3 3 3 4 5 5 5 6 6 7 7 6 6 6 5 5 5 5 5 5 6 6 7 7 8 7 7 6 5 5
7 7 8 10 10 8 7 7 7 7 6 5 5 3 3 4 5 6 6 5 6 7 7 7 7 7 7 6 6 5 5 5 6 5 6 6 6 6 6 7 7 5 4
6 7 9 11 12 11 8 8 6 4 4 5 4 3 4 6 7 7 6 6 6 7 8 7 8 8 8 7 7 6 5 5 5 4 4 5 6 6 7 7 8 7 5
8 3 1 2 4 6 5 4 2 2 3 5 5 6 6 6 7 7 7 7 6 7 7 7 7 7 7 8 8 7 6 6 5 4 4 5 7 9 7 5 6 6 5
15 15 15 15 13 11 8 8 7 5 3 2 4 5 5 5 6 7 7 7 6 6 5 5 6 7 7 11 14 10 7 7 6 6 5 5 7 10 11 10 10 9 6
14 15 15 14 14 13 13 13 11 10 10 8 6 5 2 1 2 2 2 4 4 4 5 5 6 6 8 11 13 14 8 7 7 7 6 5 7 10 7 10 13 12 12
11 10 10 10 9 9 9 9 8 9 9 9 9 9 9 7 6 5 5 4 3 2 3 4 4 4 6 9 10 12 8 7 7 7 7 7 7 7 9 8 9 9 10
6 6 6 7 8 8 8 8 9 8 8 8 8 7 7 7 7 7 6 5 4 4 2 2 1 1 3 6 9 8 5 5 6 5 5 6 7 11 12 9 8 7 8
6 7 7 8 8 8 8 9 9 8 8 6 6 6 6 6 6 6 5 4 4 4 4 5 4 2 2 3 5 7 3 4 4 3 4 5 6 9 10 9 8 8 7
5 7 7 6 4 5 7 8 7 7 5 5 6 5 5 5 5 5 5 5 5 6 6 6 5 5 5 5 3 3 3 4 4 4 4 4 6 8 8 10 8 9 6
3 4 5 4 3 3 5 5 5 4 4 5 6 4 5 5 5 6 6 6 6 7 6 6 6 5 6 6 6 4 2 4 4 4 4 5 6 6 5 6 7 9 8
1 1 2 3 4 3 1 3 4 2 3 5 4 3 4 5 5 6 6 6 6 5 5 5 6 6 6 7 11 9 5 3 3 4 7 8 7 5 4 6 8 8 6
2 1 1 3 4 4 2 2 2 2 4 3 1 1 2 2 4 4 4 4 5 5 5 6 6 6 5 5 6 6 4 3 2 3 3 0 5 6 6 6 5 4 4
4 1 2 2 4 3 2 2 1 4 4 3 1 1 2 2 2 3 4 3 3 3 3 4 5 6 6 8 9 5 3 2 3 2 1 2 3 4 4 4 4 3 4
5 4 5 5 4 2 4 4 2 4 5 3 2 2 2 3 2 1 1 3 1 3 4 5 5 4 5 9 7 4 1 3 4 1 2 2 3 4 4 4 3 3 3
Wind_Direction
243 179 174 175 173 173 174 172 168 173 167 160 159 159 171 173 184 191 191 192 195 186 159 151 160 180 184 169 147 134 146 149 132 101 72 21 35 128 156 144 147 150 146
235 183 167 169 172 173 175 173 170 168 166 165 159 155 157 175 187 180 183 191 185 172 171 164 160 181 176 160 160 147 142 153 158 136 124 72 353 329 323 149 167 174 152
199 180 165 166 170 173 174 168 158 153 152 143 126 107 95 87 109 168 195 201 193 188 182 170 156 164 173 183 179 166 154 161 179 166 148 153 197 247 307 280 173 176 156
170 156 148 156 164 169 155 141 138 140 143 139 142 147 150 158 182 182 192 208 200 195 191 178 155 159 172 191 195 186 173 158 168 174 188 165 159 155 216 302 276 216 190
139 137 133 127 114 126 131 127 123 131 139 142 145 141 136 148 153 155 180 200 201 199 198 185 161 160 177 195 201 199 186 169 169 165 165 150 129 122 143 213 255 257 240
167 134 115 109 104 116 116 113 125 139 137 134 135 140 147 154 153 160 177 195 197 206 206 189 173 169 183 195 201 204 194 186 174 170 167 162 162 166 145 169 219 225 237
151 130 118 107 101 95 93 111 149 156 150 146 149 153 158 165 177 181 184 183 188 210 217 198 187 178 189 197 196 199 204 194 184 181 188 190 183 163 153 159 214 227 234
39 87 122 126 119 114 135 206 190 177 165 162 169 163 161 168 188 195 188 192 196 207 204 194 194 190 190 197 198 201 206 202 200 197 195 201 200 187 178 174 178 212 235
38 38 59 125 150 166 192 205 189 183 182 183 191 206 192 179 184 199 192 187 186 180 162 163 177 185 188 193 194 203 208 205 206 205 204 206 205 199 195 189 186 190 207
54 45 21 346 265 188 171 168 179 189 192 192 196 193 172 163 163 164 166 169 176 167 160 175 194 205 195 180 180 190 210 214 211 199 201 211 212 205 200 198 198 204 205
68 95 64 286 270 251 190 177 184 185 183 177 165 144 140 151 163 171 174 175 179 178 181 191 209 223 211 188 174 175 185 214 233 225 212 218 210 206 196 187 187 195 192
276 194 194 237 258 254 228 204 198 194 189 170 144 152 161 167 189 204 199 189 197 201 196 191 195 207 210 206 199 197 195 213 233 234 224 223 214 202 191 185 179 178 184
259 238 238 250 259 250 227 214 215 204 182 161 157 173 201 211 221 229 223 205 203 211 210 196 196 202 208 217 222 216 219 231 241 238 226 219 201 192 181 178 175 168 163
251 231 244 258 267 265 241 213 211 190 168 166 166 198 230 236 239 240 241 235 217 214 217 213 210 205 206 214 225 221 228 244 255 249 222 201 188 178 169 173 172 164 153
27 46 219 280 301 295 262 208 172 137 166 174 184 210 231 245 246 242 238 242 236 230 227 223 224 213 201 208 210 211 215 225 240 243 217 191 185 181 176 168 169 165 159
38 43 48 49 44 39 41 54 54 48 72 167 215 224 230 244 252 250 238 233 237 237 231 228 224 213 212 212 206 202 202 205 211 219 222 218 215 214 211 200 186 177 171
41 45 48 51 50 48 52 55 47 46 53 48 34 12 342 334 321 290 268 260 257 250 239 223 210 214 221 222 215 209 197 199 207 208 210 224 228 225 220 223 215 203 196
40 45 50 57 60 63 63 62 54 53 55 52 48 44 48 47 39 42 33 7 349 299 251 243 226 225 242 236 219 205 195 206 217 216 212 222 241 226 212 211 213 212 209
40 52 57 65 65 62 62 64 56 55 57 52 49 47 51 49 41 36 26 16 22 23 0 317 314 260 280 251 216 189 178 205 227 232 224 222 237 247 220 200 207 213 218
42 49 47 49 50 45 51 51 40 40 38 37 46 52 56 54 42 30 20 10 15 20 30 40 42 43 352 306 225 198 182 214 244 264 268 262 252 248 221 196 199 210 217
47 55 53 47 41 48 56 47 31 18 11 32 49 51 48 49 37 29 25 24 27 33 35 37 27 21 7 356 325 226 196 222 244 257 268 280 286 258 225 192 195 204 185
46 54 48 25 10 40 58 43 13 350 29 54 61 52 40 36 38 40 34 31 36 38 28 24 16 6 2 9 3 354 258 219 224 244 250 262 267 240 201 183 189 171 144
226 56 29 342 343 358 27 17 337 354 72 71 67 41 41 44 46 51 45 36 31 32 22 22 16 0 360 6 8 359 335 269 237 260 267 265 246 194 170 162 150 139 134
273 33 23 322 335 332 287 285 335 84 102 92 108 14 25 29 33 40 43 46 31 22 22 19 7 352 348 354 353 343 339 337 311 298 314 95 139 130 125 121 114 121 147
295 286 214 272 318 333 265 269 60 102 119 127 183 265 302 312 341 32 44 41 38 17 14 5 351 347 344 337 330 312 295 291 285 274 188 143 149 148 135 118 120 128 129
318 293 267 265 280 287 241 244 203 142 147 168 211 262 285 299 306 307 18 52 32 359 360 353 352 342 338 344 5 16 360 340 335 263 165 160 155 147 145 142 135 133 140
Height
1474 1475 1478 1482 1487 1491 1493 1495 1497 1500 1503 1506 1508 1510 1512 1514 1516 1518 1520 1522 1525 1526 1528 1529 1530 1532 1533 1534 1535 1537 1538 1540 1541 1542 1544 1544 1544 1545 1546 1546 1546 1546 1546
1473 1473 1474 1478 1482 1485 1489 1492 1494 1498 1500 1504 1507 1509 1511 1513 1515 1516 1518 1520 1522 1524 1525 1526 1528 1529 1531 1531 1532 1533 1535 1537 1538 1540 1542 1543 1544 1544 1545 1545 1545 1545 1546
1469 1470 1470 1473 1478 1482 1485 1488 1492 1496 1499 1502 1505 1507 1509 1510 1512 1514 1516 1518 1519 1521 1522 1523 1524 1525 1526 1527 1528 1529 1531 1533 1535 1537 1539 1540 1540 1541 1543 1543 1544 1544 1545
1466 1468 1469 1472 1475 1479 1482 1485 1490 1494 1497 1499 1501 1503 1505 1507 1509 1512 1514 1516 1517 1518 1519 1520 1521 1522 1523 1524 1525 1526 1527 1529 1531 1533 1536 1538 1538 1539 1540 1542 1543 1543 1544
1465 1468 1470 1472 1475 1480 1482 1485 1490 1494 1496 1497 1499 1500 1502 1504 1507 1509 1512 1514 1515 1515 1515 1516 1517 1518 1519 1520 1521 1522 1523 1525 1527 1529 1532 1534 1536 1537 1538 1539 1540 1542 1542
1463 1465 1470 1473 1477 1481 1484 1486 1490 1493 1494 1495 1497 1498 1501 1503 1505 1507 1509 1511 1512 1512 1512 1512 1513 1514 1515 1515 1517 1518 1519 1521 1523 1525 1527 1530 1532 1533 1535 1537 1538 1539 1540
1460 1463 1468 1474 1479 1483 1484 1487 1491 1492 1493 1494 1496 1498 1501 1503 1504 1505 1507 1509 1510 1510 1509 1509 1509 1510 1510 1510 1511 1512 1514 1516 1518 1520 1522 1525 1527 1530 1532 1534 1535 1537 1538
1465 1466 1469 1473 1477 1481 1485 1489 1491 1491 1491 1493 1495 1498 1500 1502 1503 1504 1505 1507 1507 1507 1507 1506 1506 1507 1506 1506 1507 1508 1510 1512 1514 1516 1517 1520 1523 1525 1527 1529 1531 1533 1535
1472 1472 1474 1476 1478 1482 1486 1487 1490 1490 1491 1493 1495 1498 1500 1501 1502 1503 1504 1505 1506 1505 1504 1504 1504 1504 1503 1502 1503 1504 1505 1507 1509 1511 1513 1515 1518 1520 1522 1524 1526 1530 1531
1476 1476 1477 1480 1482 1484 1485 1487 1489 1490 1491 1493 1494 1496 1498 1499 1500 1502 1503 1504 1504 1504 1503 1503 1503 1502 1501 1500 1500 1500 1501 1503 1504 1505 1507 1509 1512 1514 1517 1519 1521 1524 1526
1480 1479 1481 1480 1482 1483 1485 1486 1487 1489 1490 1492 1494 1495 1497 1499 1500 1501 1502 1502 1503 1503 1503 1502 1502 1501 1500 1498 1498 1498 1498 1499 1500 1501 1502 1503 1505 1508 1511 1513 1516 1518 1521
1483 1482 1480 1480 1480 1481 1483 1485 1486 1488 1490 1492 1494 1496 1498 1499 1500 1500 1500 1500 1501 1501 1502 1501 1501 1500 1499 1498 1497 1497 1496 1496 1496 1496 1496 1497 1499 1501 1504 1507 1510 1513 1516
1483 1482 1481 1480 1479 1480 1482 1483 1486 1489 1491 1493 1495 1496 1498 1499 1499 1499 1499 1499 1499 1499 1500 1500 1499 1499 1498 1498 1497 1496 1495 1494 1493 1492 1492 1493 1495 1496 1499 1501 1504 1507 1510
1480 1480 1480 1479 1479 1479 1480 1482 1486 1490 1491 1492 1494 1495 1496 1497 1497 1498 1498 1498 1497 1497 1497 1497 1497 1497 1497 1497 1496 1495 1494 1493 1492 1491 1490 1491 1492 1494 1496 1497 1499 1501 1504
1478 1479 1479 1479 1479 1479 1479 1481 1485 1488 1490 1491 1493 1493 1493 1494 1494 1494 1495 1495 1494 1494 1495 1495 1495 1495 1495 1495 1495 1495 1494 1493 1493 1491 1491 1491 1491 1492 1494 1495 1496 1497 1498
1482 1480 1479 1480 1480 1480 1481 1482 1484 1487 1488 1490 1490 1490 1490 1491 1490 1490 1490 1490 1489 1490 1491 1492 1492 1492 1493 1493 1494 1494 1494 1493 1493 1492 1491 1491 1491 1492 1492 1493 1494 1495 1496
1488 1486 1485 1484 1484 1485 1484 1484 1485 1486 1486 1487 1487 1486 1486 1487 1487 1486 1485 1485 1485 1486 1487 1488 1488 1488 1489 1489 1490 1491 1492 1492 1492 1492 1491 1491 1491 1491 1491 1491 1492 1493 1493
1495 1493 1493 1492 1492 1491 1490 1490 1489 1488 1488 1487 1486 1485 1484 1483 1483 1482 1482 1482 1482 1482 1483 1483 1484 1485 1485 1486 1487 1488 1489 1489 1489 1490 1490 1489 1490 1490 1490 1490 1490 1490 1491
1502 1500 1498 1497 1495 1494 1493 1492 1490 1489 1488 1487 1486 1484 1483 1482 1481 1481 1480 1480 1480 1479 1479 1479 1480 1480 1481 1482 1483 1484 1484 1485 1486 1487 1487 1487 1488 1488 1489 1489 1489 1489 1489
1505 1502 1501 1499 1497 1496 1494 1492 1491 1490 1489 1488 1487 1485 1484 1482 1481 1480 1480 1479 1478 1477 1477 1476 1477 1477 1477 1478 1479 1479 1480 1481 1482 1483 1483 1484 1484 1485 1486 1486 1487 1487 1488
1507 1505 1503 1502 1500 1499 1497 1495 1494 1493 1492 1491 1490 1488 1486 1484 1482 1481 1480 1479 1478 1477 1476 1475 1475 1474 1474 1475 1475 1476 1476 1477 1477 1478 1478 1479 1480 1481 1482 1483 1484 1485 1486
1510 1508 1506 1505 1504 1503 1501 1499 1497 1496 1495 1493 1492 1490 1487 1485 1484 1482 1481 1480 1480 1478 1477 1476 1475 1474 1473 1473 1473 1473 1473 1472 1472 1472 1473 1474 1475 1477 1478 1480 1480 1482 1483
1512 1510 1509 1508 1506 1505 1503 1501 1500 1498 1497 1495 1494 1491 1489 1487 1485 1484 1483 1482 1481 1479 1478 1476 1474 1473 1473 1472 1471 1471 1470 1469 1469 1469 1469 1470 1471 1472 1474 1476 1477 1479 1480
1512 1511 1510 1509 1508 1507 1506 1504 1502 1500 1498 1497 1495 1493 1491 1489 1487 1486 1485 1484 1482 1481 1478 1476 1474 1473 1472 1470 1469 1468 1468 1467 1466 1466 1466 1466 1467 1469 1471 1473 1474 1477 1479
1513 1512 1511 1510 1509 1508 1507 1505 1503 1501 1499 1498 1496 1495 1493 1491 1489 1488 1486 1485 1483 1481 1479 1476 1474 1472 1470 1469 1467 1466 1465 1464 1464 1463 1464 1464 1466 1467 1469 1470 1473 1475 1477
1512 1512 1511 1510 1509 1508 1507 1506 1504 1501 1499 1498 1497 1495 1493 1491 1490 1488 1487 1485 1484 1481 1479 1477 1475 1473 1471 1469 1466 1465 1464 1462 1461 1461 1462 1463 1465 1466 1468 1470 1473 1475 1476